This is the latest recevied weather packets stored in our database for station/object W4BOD. If no packets are shown the sender has not sent any weather packets the latest 10 day(s).
| Time | Temp. | Humidity | Pressure | Rain* | Wind** | Luminosity | Snow |
|---|---|---|---|---|---|---|---|
| 1788042985 | 35° C | 53% | 1017.4 hPa | 0 mm | - | 153 W/m² | - |
| 1788042680 | 34.44° C | 48% | 1017.6 hPa | 0 mm | - | 162 W/m² | - |
| 1788042379 | 34.44° C | 48% | 1017.6 hPa | 0 mm | - | 123 W/m² | - |
| 1788042074 | 35° C | 48% | 1017.4 hPa | 0 mm | - | 167 W/m² | - |
| 1788041769 | 35° C | 49% | 1017.6 hPa | 0 mm | - | 191 W/m² | - |
| 1788041465 | 35° C | 47% | 1017.5 hPa | 0 mm | - | 173 W/m² | - |
| 1788041165 | 35° C | 46% | 1017.6 hPa | 0 mm | - | 80 W/m² | - |
| 1788040864 | 35° C | 46% | 1017.6 hPa | 0 mm | - | 88 W/m² | - |
| 1788040562 | 35.56° C | 45% | 1017.8 hPa | 0 mm | - | 91 W/m² | - |
| 1788040259 | 36.11° C | 46% | 1017.7 hPa | 0 mm | - | 95 W/m² | - |
| 1788039957 | 35° C | 50% | 1017.8 hPa | 0 mm | - | 101 W/m² | - |
| 1788039653 | 35.56° C | 44% | 1017.7 hPa | 0 mm | - | 139 W/m² | - |
| 1788039348 | 36.11° C | 44% | 1017.8 hPa | 0 mm | - | 338 W/m² | - |
| 1788039043 | 35.56° C | 44% | 1017.8 hPa | 0 mm | - | 338 W/m² | - |
| 1788038738 | 35.56° C | 44% | 1017.8 hPa | 0 mm | - | 122 W/m² | - |
| 1788038433 | 35.56° C | 43% | 1018 hPa | 0 mm | - | 308 W/m² | - |
| 1788038133 | 35° C | 45% | 1017.9 hPa | 0 mm | - | 421 W/m² | - |
| 1788037832 | 35° C | 43% | 1017.9 hPa | 0 mm | - | 429 W/m² | - |
| 1788037527 | 35.56° C | 44% | 1017.8 hPa | 0 mm | - | 448 W/m² | - |
| 1788037223 | 35.56° C | 46% | 1018 hPa | 0 mm | - | 465 W/m² | - |
| 1788036921 | 35° C | 45% | 1018.1 hPa | 0 mm | - | 480 W/m² | - |
| 1788036619 | 35° C | 45% | 1018.2 hPa | 0 mm | - | 500 W/m² | - |
| 1788036314 | 35° C | 44% | 1018.2 hPa | 0 mm | - | 511 W/m² | - |
| 1788036009 | 35.56° C | 44% | 1018.1 hPa | 0 mm | - | 530 W/m² | - |
| 1788035708 | 35.56° C | 43% | 1018.1 hPa | 0 mm | - | 546 W/m² | - |
* Rain latest hour (hover to see other rain measurements)
** Current wind speed in m/s (hover to see current wind gust speed)